Tracking 30102 objects as of 12-Dec-2024
HD Live streaming from Space Station
objects crossing your sky now

STARLINK-32573

Track STARLINK-32573 now!
10-day predictions
STARLINK-32573 is classified as:


NORAD ID: 61725
Int'l Code: 2024-196U
Perigee: 453.5 km
Apogee: 455.2 km
Inclination: 53.2 °
Period: 93.5 minutes
Semi major axis: 6825 km
RCS: Unknown
Launch date: October 30, 2024
Source: United States (US)
Launch site: AIR FORCE EASTERN TEST RANGE (AFETR)
Your satellite tracking list
Your tracking list is empty




NASA's NSSDC Master Catalog

Two Line Element Set (TLE):
1 61725U 24196U   24346.87275089  .00002791  00000-0  79737-4 0  9994
2 61725  53.1619  47.8011 0001223 141.1748 218.9345 15.39615489  7812
Source of the keplerian elements: AFSPC